Location: Bethune
(34.4150°N, 80.3490°W)
Time: 02:51:22
(UTC-05:00)

ISS - Visible Passes

Search period start: 17 December 2018 00:00
Search period end: 27 December 2018 00:00
Orbit: 401 x 408 km, 51.6° (Epoch: 18 December)

Date Brightness Start Highest point End Pass type
(mag) Time Alt. Az. Time Alt. Az. Time Alt. Az.
21 Dec -0.6 06:28:51 10° S 06:31:01 17° SE 06:33:11 10° E visible
23 Dec -2.7 06:19:38 10° SSW 06:22:48 46° SE 06:25:58 10° ENE visible
24 Dec -1.3 05:28:24 12° S 05:30:41 21° SE 05:33:15 10° ENE visible
25 Dec -3.8 06:12:52 23° WSW 06:14:41 57° NW 06:17:55 10° NE visible
26 Dec -1.9 05:23:56 28° ENE 05:23:56 28° ENE 05:25:40 10° NE visible
26 Dec -1.9 06:57:16 10° WNW 06:59:10 14° NNW 07:01:04 10° N visible
